Regional Weather Roundup
Issued by NWS

Home | Current Version | Previous Version | Graphics & Text | Print | Product List | Glossary On
Versions: 1 2 3 4 5 6 7 8 9 10 11 12 13 14 15 16 17 18 19 20 21 22 23 24 25 26 27 28 29 30 31 32 33 34 35 36 37 38 39 40 41 42 43 44 45 46 47 48 49 50
000
ASUS43 KMKX 281911
RWRWI

WISCONSIN REGIONAL WEATHER ROUNDUP
NATIONAL WEATHER SERVICE MILWAUKEE/SULLIVAN WI
100 PM CST FRI NOV 28 2014

NOTE: "FAIR" INDICATES FEW OR NO CLOUDS BELOW 12,000 FEET WITH NO
SIGNIFICANT WEATHER AND/OR OBSTRUCTIONS TO VISIBILITY.

WIZ001-002-006>008-014>016-023>028-282000-
NORTHWEST WISCONSIN

CITY           SKY/WX    TMP DP  RH WIND       PRES   REMARKS
SUPERIOR ARPT  FLURRIES  16  10  77 CALM      29.97F
ASHLAND        CLOUDY    14  10  84 NE3       29.98F
HAYWARD        CLOUDY    15   9  76 VRB5      29.92F WCI   8
SIREN          LGT SNOW  17  11  76 SE6       29.93F WCI   8
CUMBERLAND     LGT SNOW  16  10  79 SE8       29.91F WCI   5
RICE LAKE      LGT SNOW  17  11  79 SE9       29.95F WCI   5
CHETEK         FLURRIES  17  11  78 SE6       29.93F WCI   8
LADYSMITH      LGT SNOW  17  11  78 S5        29.96F WCI  10
EAU CLAIRE     CLOUDY    20  12  71 SE6       29.93F WCI  12
MENOMONIE      CLOUDY    21  13  71 E7        29.94F WCI  12
NEW RICHMOND   CLOUDY    19  12  73 SE8       29.91F WCI   9
OSCEOLA        CLOUDY    19  13  77 SE9       29.93F WCI   8
$$

WIZ003>005-009-010-017-018-282000-
NORTH CENTRAL WISCONSIN

CITY           SKY/WX    TMP DP  RH WIND       PRES   REMARKS
MANITOWISH WTR CLOUDY    12  10  90 S7        29.92F WCI   2
ARBOR VITAE    FLURRIES  14  11  85 SE5       29.93S WCI   7
WOODRUFF       FLURRIES  14  11  85 SE5       29.93S WCI   7
RHINELANDER    CLOUDY    13   9  84 SE6       29.94F WCI   4
EAGLE RIVER    FLURRIES  13   8  81 SE6       29.94F WCI   4
LAND O LAKES   LGT SNOW  14  11  89 SE6       29.94F WCI   5
PHILLIPS       LGT SNOW  14  10  83 SE5       29.92F WCI   6
TOMAHAWK       LGT SNOW  15  10  83 CALM      29.94F
MEDFORD        LGT SNOW  15  10  82 SE6       29.93F WCI   6
MERRILL        LGT SNOW  15  10  82 SE6       29.95F WCI   6
$$

WIZ029-030-035-036-043>047-282000-
CENTRAL WISCONSIN

CITY           SKY/WX    TMP DP  RH WIND       PRES   REMARKS
WAUSAU         LGT SNOW  16  11  80 SE9       29.95F WCI   4
MOSINEE        LGT SNOW  16  14  93 SE6       29.98F WCI   7
MARSHFIELD     CLOUDY    19  12  74 SE8       29.95F WCI   9
STEVENS POINT  LGT SNOW  16  12  83 SE7       29.98F WCI   6
WAUPACA        CLOUDY    22  16  76 SE8       30.01F WCI  13
WAUTOMA        CLOUDY    23  15  71 S7        30.01F WCI  15
WISC RAPIDS    CLOUDY    20  12  71 S8        29.98F WCI  10
CAMP DOUGLAS   MOSUNNY   25  16  69 SE7       29.96F WCI  17
$$

WIZ011>013-019>022-031-037>040-048>050-282000-
NORTHEAST WISCONSIN

CITY           SKY/WX    TMP DP  RH WIND       PRES   REMARKS
ANTIGO         LGT SNOW  12   9  87 SE10      29.95F WCI  -1
SHAWANO        LGT SNOW  19  14  81 E5        30.04F WCI  13
OCONTO         CLOUDY    19  16  88 SE3       30.06F
STURGEON BAY   CLOUDY    18  12  79 CALM      30.07F
GREEN BAY      LGT SNOW  20  16  84 SE6       30.04F FOG     WCI  12
MANITOWOC      FLURRIES  25  22  88 S8        30.05F WCI  16
APPLETON       CLOUDY    19  16  86 SE9       30.02F WCI   9
CLINTONVILLE   LGT SNOW  18  14  86 E6        30.01F WCI   9
OSHKOSH        CLOUDY    22  15  75 MISG      30.00F
$$

WIZ032>034-041-042-053>061-282000-
SOUTHWEST WISCONSIN

CITY           SKY/WX    TMP DP  RH WIND       PRES   REMARKS
LA CROSSE      MOSUNNY   26  15  63 S7        29.95F WCI  18
SPARTA         CLOUDY    27  15  59 S8        29.96F WCI  19
VIROQUA        SUNNY     24  16  71 SE8       29.92F WCI  15
BOSCOBEL       MOSUNNY   27  17  66 S5        29.98F WCI  22
PRAIRIE DU CHI PTSUNNY   27  17  66 SE7       29.95F WCI  19
PLATTEVILLE    PTSUNNY   26  19  76 CALM      29.96F
$$

WIZ056-057-062-063-064-067-068-282000-
SOUTH CENTRAL WISCONSIN

CITY           SKY/WX    TMP DP  RH WIND       PRES   REMARKS
REEDSBURG      CLOUDY    24  15  69 S6        29.96F WCI  17
BARABOO/DELLS  PTSUNNY   24  16  69 S9        29.98S WCI  15
LONE ROCK      PTSUNNY   30  17  58 S8        29.98F WCI  22
MINERAL POINT  SUNNY     28  19  69 SE15      29.93F WCI  17
MADISON        PTSUNNY   25  15  66 S18       29.98F WCI  11
MIDDLETON      PTSUNNY   28  16  61 S14       29.98F WCI  17
WATERTOWN      MOSUNNY   25  17  72 SE10G17   29.99F WCI  15
MONROE         MOSUNNY   27  21  80 S14       29.97F WCI  15
JANESVILLE     SUNNY     28  18  64 S13G18    30.01F WCI  18
$$

WIZ051-052-058>065-066-070>072-282000-
SOUTHEAST WISCONSIN

CITY           SKY/WX    TMP DP  RH WIND       PRES   REMARKS
MILWAUKEE      CLOUDY    28  18  66 S13       30.04F WCI  17
WAUKESHA       PTSUNNY   23  14  68 SE12      30.03F WCI  12
MILWAUKEE/TIMM CLOUDY    25  12  58 SE7       30.06F WCI  17
RACINE         CLOUDY    29  20  69 S14G23    30.05F WCI  18
BURLINGTON     CLOUDY    25  17  69 S12       30.03F WCI  15
KENOSHA        CLOUDY    27  18  69 S12       30.04F WCI  17
FOND DU LAC    CLOUDY    24  15  68 SE13      30.00F WCI  12
SHEBOYGAN      CLOUDY    24  19  81 S7        30.04F WCI  16
WEST BEND      CLOUDY    27  14  59 SE8       30.00F WCI  18
JUNEAU         CLOUDY    25  17  70 SE13      30.00F WCI  13
$$

LSZ147-162-282000-
LAKE SUPERIOR

STATION/POSITION TIME  TEMP    WIND        PRES    WAVE
                       AIR SEA DIR/SP/G            HT/PER
                 (UTC) (F)     (DEG/KT/KT) (MB)    (FT/S)
DEVILS ISLAND    1900   20     160/  7/ 10 1016.4F
PORT WING        1800   15     170/  6/  8 1016.3F
SAXON HARBOR     1800   17      CALM  /  2 1016.3F
$$

LMZ867-665-643>646-282000-
LAKE MICHIGAN

STATION/POSITION TIME  TEMP    WIND        PRES    WAVE
                       AIR SEA DIR/SP/G            HT/PER
                 (UTC) (F)     (DEG/KT/KT) (MB)    (FT/S)
CHAMBERS ISLAND  1800   20      CALM  /  7 1019.6F
N MID LAKE BUOY  1850   24 42  240/ 10/ 12 1020.1F   2/ 4
NORTHPORT PIER   1818   18     220/  3/  9 1019.6F
SISTER BAY       1828             CALM       N/A
ALGOMA LAKESHORE 1828          280/  2/  4   N/A
KEWAUNEE LAKESHO 1806   19     200/  1/  6 1018.2F
SHEBOYGAN LAKESH 1900   29 34  180/ 19/ 21 1018.5F
PORT WASHINGTON  1820   28     180/ 15/ 19 1019.0F
MILWAUKEE LAKESH 1800   26     170/ 11/ 14   N/A
S MID LAKE BUOY  1850   29 42  160/ 19/ 23 1019.6F   5/ 5
KENOSHA   LAKESH 1900   29     170/ 23/ 26 1017.3F
$$

TC  - TEMPERATURE IN CELSIUS
VSB - VISIBILITY IN STATUTE MILES
WCI - WIND CHILL INDEX
HX  - HEAT INDEX



USA.gov is the U.S. government's official web portal to all federal, state and local government web resources and services.